Time,TemperatureF,DewpointF,PressureIn,WindDirection,WindDirectionDegrees,WindSpeedMPH,WindSpeedGustMPH,Humidity,HourlyPrecipIn,Conditions,Clouds,dailyrainin,SolarRadiationWatts/m^2,SoftwareType,DateUTC
2013-04-05 00:42:00,53.0,53.0,-100.00,NE,34,2.0,5.0,99,-99.99,,,0.00,0.000000,,2013-04-05 07:42:00,
2013-04-05 00:52:00,53.0,53.0,-100.00,NE,34,2.0,5.0,99,-99.99,,,0.00,0.000000,,2013-04-05 07:52:00,
2013-04-05 01:02:00,53.0,53.0,-100.00,NE,34,2.0,5.0,99,-99.99,,,0.00,0.000000,,2013-04-05 08:02:00,
2013-04-05 01:12:00,53.0,53.0,-100.00,NE,34,2.0,5.0,99,-99.99,,,0.00,0.000000,,2013-04-05 08:12:00,
2013-04-05 01:43:00,58.0,57.0,-100.00,WNW,283,3.0,10.0,97,0.00,,,0.00,0.000000,,2013-04-05 08:43:00,
2013-04-05 01:52:00,58.0,57.0,-100.00,WNW,283,3.0,10.0,97,0.00,,,0.00,0.000000,,2013-04-05 08:52:00,
2013-04-05 02:02:00,58.0,57.0,-100.00,WNW,283,3.0,10.0,97,0.00,,,0.00,0.000000,,2013-04-05 09:02:00,
2013-04-05 02:12:00,58.0,57.0,-100.00,WNW,283,3.0,10.0,97,0.00,,,0.00,0.000000,,2013-04-05 09:12:00,
2013-04-05 02:43:00,55.0,55.0,-100.00,NE,53,1.0,4.0,100,0.00,,,0.00,0.000000,,2013-04-05 09:43:00,
2013-04-05 02:53:00,55.0,55.0,-100.00,NE,53,1.0,4.0,100,0.00,,,0.00,0.000000,,2013-04-05 09:53:00,
2013-04-05 03:02:00,55.0,55.0,-100.00,NE,53,1.0,4.0,100,0.00,,,0.00,0.000000,,2013-04-05 10:02:00,
2013-04-05 03:12:00,55.0,55.0,-100.00,NE,53,1.0,4.0,100,0.00,,,0.00,0.000000,,2013-04-05 10:12:00,
2013-04-05 03:33:00,54.0,54.0,-100.00,SSW,193,1.0,4.0,100,0.00,,,0.00,0.000000,,2013-04-05 10:33:00,
2013-04-05 03:43:00,54.0,54.0,-100.00,SSW,193,1.0,4.0,100,0.00,,,0.00,0.000000,,2013-04-05 10:43:00,
2013-04-05 03:53:00,54.0,54.0,-100.00,SSW,193,1.0,4.0,100,0.00,,,0.00,0.000000,,2013-04-05 10:53:00,
2013-04-05 04:02:00,54.0,54.0,-100.00,SSW,193,1.0,4.0,100,0.00,,,0.00,0.000000,,2013-04-05 11:02:00,
2013-04-05 04:12:00,54.0,54.0,-100.00,SSW,193,1.0,4.0,100,0.00,,,0.00,0.000000,,2013-04-05 11:12:00,
2013-04-05 04:33:00,54.0,54.0,-100.00,WSW,248,2.0,4.0,100,0.00,,,0.00,0.000000,,2013-04-05 11:33:00,
2013-04-05 04:42:00,54.0,54.0,-100.00,WSW,248,2.0,4.0,100,0.00,,,0.00,0.000000,,2013-04-05 11:42:00,
2013-04-05 04:52:00,54.0,54.0,-100.00,WSW,248,2.0,4.0,100,0.00,,,0.00,0.000000,,2013-04-05 11:52:00,
2013-04-05 05:02:00,54.0,54.0,-100.00,WSW,248,2.0,4.0,100,0.00,,,0.00,0.000000,,2013-04-05 12:02:00,
2013-04-05 05:12:00,54.0,54.0,-100.00,WSW,248,2.0,4.0,100,0.00,,,0.00,0.000000,,2013-04-05 12:12:00,
2013-04-05 06:42:00,53.0,53.0,-100.00,WSW,239,1.0,4.0,100,-99.99,,,0.00,0.000000,,2013-04-05 13:42:00,
2013-04-05 06:52:00,53.0,53.0,-100.00,WSW,239,1.0,4.0,100,-99.99,,,0.00,0.000000,,2013-04-05 13:52:00,
2013-04-05 07:02:00,53.0,53.0,-100.00,WSW,239,1.0,4.0,100,-99.99,,,0.00,0.000000,,2013-04-05 14:02:00,
2013-04-05 07:12:00,53.0,53.0,-100.00,WSW,239,1.0,4.0,100,-99.99,,,0.00,0.000000,,2013-04-05 14:12:00,
2013-04-05 07:43:00,53.0,53.0,-100.00,WSW,243,2.0,5.0,100,0.00,,,0.00,3.000000,,2013-04-05 14:43:00,
2013-04-05 07:53:00,53.0,53.0,-100.00,WSW,243,2.0,5.0,100,0.00,,,0.00,3.000000,,2013-04-05 14:53:00,
2013-04-05 08:02:00,53.0,53.0,-100.00,WSW,243,2.0,5.0,100,0.00,,,0.00,3.000000,,2013-04-05 15:02:00,
2013-04-05 08:12:00,53.0,53.0,-100.00,WSW,243,2.0,5.0,100,0.00,,,0.00,3.000000,,2013-04-05 15:12:00,
2013-04-05 08:13:00,53.0,53.0,-100.00,South,187,3.0,5.0,100,0.00,,,0.00,29.000000,,2013-04-05 15:13:00,
2013-04-05 08:33:00,53.0,53.0,-100.00,South,187,3.0,5.0,100,0.00,,,0.00,29.000000,,2013-04-05 15:33:00,
2013-04-05 08:43:00,53.0,53.0,-100.00,South,187,3.0,5.0,100,0.00,,,0.00,29.000000,,2013-04-05 15:43:00,
2013-04-05 08:53:00,53.0,53.0,-100.00,South,187,3.0,5.0,100,0.00,,,0.00,29.000000,,2013-04-05 15:53:00,
2013-04-05 09:02:00,53.0,53.0,-100.00,South,187,3.0,5.0,100,0.00,,,0.00,29.000000,,2013-04-05 16:02:00,
2013-04-05 09:33:00,53.0,53.0,-100.00,WSW,252,3.0,6.0,100,0.00,,,0.00,31.000000,,2013-04-05 16:33:00,
2013-04-05 09:43:00,53.0,53.0,-100.00,WSW,252,3.0,6.0,100,0.00,,,0.00,31.000000,,2013-04-05 16:43:00,
2013-04-05 09:53:00,53.0,53.0,-100.00,WSW,252,3.0,6.0,100,0.00,,,0.00,31.000000,,2013-04-05 16:53:00,
2013-04-05 10:02:00,53.0,53.0,-100.00,WSW,252,3.0,6.0,100,0.00,,,0.00,31.000000,,2013-04-05 17:02:00,
2013-04-05 10:12:00,53.0,53.0,-100.00,WSW,252,3.0,6.0,100,0.00,,,0.00,31.000000,,2013-04-05 17:12:00,
2013-04-05 10:33:00,53.0,53.0,-100.00,South,187,2.0,6.0,100,0.01,,,0.01,73.000000,,2013-04-05 17:33:00,
2013-04-05 10:45:00,53.0,53.0,-100.00,South,187,2.0,6.0,100,0.01,,,0.01,73.000000,,2013-04-05 17:45:00,
2013-04-05 10:52:00,53.0,53.0,-100.00,South,187,2.0,6.0,100,0.01,,,0.01,73.000000,,2013-04-05 17:52:00,
2013-04-05 11:02:00,53.0,53.0,-100.00,South,187,2.0,6.0,100,0.01,,,0.01,73.000000,,2013-04-05 18:02:00,
2013-04-05 11:11:00,53.0,53.0,-100.00,South,187,2.0,6.0,100,0.01,,,0.01,73.000000,,2013-04-05 18:11:00,
2013-04-05 11:43:00,54.0,54.0,-100.00,WSW,245,3.0,6.0,100,0.00,,,0.01,116.000000,,2013-04-05 18:43:00,
2013-04-05 11:52:00,54.0,54.0,-100.00,WSW,245,3.0,6.0,100,0.00,,,0.01,116.000000,,2013-04-05 18:52:00,
2013-04-05 12:02:00,54.0,54.0,-100.00,WSW,245,3.0,6.0,100,0.00,,,0.01,116.000000,,2013-04-05 19:02:00,
2013-04-05 12:12:00,54.0,54.0,-100.00,WSW,245,3.0,6.0,100,0.00,,,0.01,116.000000,,2013-04-05 19:12:00,
2013-04-05 12:42:00,54.0,54.0,-100.00,WSW,254,3.0,6.0,100,0.00,,,0.01,111.000000,,2013-04-05 19:42:00,
2013-04-05 12:52:00,54.0,54.0,-100.00,WSW,254,3.0,6.0,100,0.00,,,0.01,111.000000,,2013-04-05 19:52:00,
2013-04-05 13:02:00,54.0,54.0,-100.00,WSW,254,3.0,6.0,100,0.00,,,0.01,111.000000,,2013-04-05 20:02:00,
2013-04-05 13:10:00,54.0,54.0,-100.00,WSW,254,3.0,6.0,100,0.00,,,0.01,111.000000,,2013-04-05 20:10:00,
2013-04-05 13:33:00,56.0,56.0,-100.00,WSW,245,3.0,6.0,100,0.00,,,0.01,141.000000,,2013-04-05 20:33:00,
2013-04-05 13:43:00,56.0,56.0,-100.00,WSW,245,3.0,6.0,100,0.00,,,0.01,141.000000,,2013-04-05 20:43:00,
2013-04-05 13:52:00,56.0,56.0,-100.00,WSW,245,3.0,6.0,100,0.00,,,0.01,141.000000,,2013-04-05 20:52:00,
2013-04-05 14:02:00,56.0,56.0,-100.00,WSW,245,3.0,6.0,100,0.00,,,0.01,141.000000,,2013-04-05 21:02:00,
2013-04-05 14:12:00,56.0,56.0,-100.00,WSW,245,3.0,6.0,100,0.00,,,0.01,141.000000,,2013-04-05 21:12:00,
2013-04-05 14:44:00,59.0,57.0,-100.00,WSW,240,3.0,6.0,94,0.00,,,0.01,256.000000,,2013-04-05 21:44:00,
2013-04-05 14:54:00,59.0,57.0,-100.00,WSW,240,3.0,6.0,94,0.00,,,0.01,256.000000,,2013-04-05 21:54:00,
2013-04-05 15:02:00,59.0,57.0,-100.00,WSW,240,3.0,6.0,94,0.00,,,0.01,256.000000,,2013-04-05 22:02:00,
2013-04-05 15:12:00,59.0,57.0,-100.00,WSW,240,3.0,6.0,94,0.00,,,0.01,256.000000,,2013-04-05 22:12:00,
2013-04-05 15:44:00,63.0,55.0,-100.00,NE,34,4.0,9.0,74,0.00,,,0.01,449.000000,,2013-04-05 22:44:00,
2013-04-05 15:53:00,63.0,55.0,-100.00,NE,34,4.0,9.0,74,0.00,,,0.01,449.000000,,2013-04-05 22:53:00,
2013-04-05 16:02:00,63.0,55.0,-100.00,NE,34,4.0,9.0,74,0.00,,,0.01,449.000000,,2013-04-05 23:02:00,
2013-04-05 16:12:00,63.0,55.0,-100.00,NE,34,4.0,9.0,74,0.00,,,0.01,449.000000,,2013-04-05 23:12:00,
2013-04-05 16:42:00,62.0,51.0,-100.00,NW,313,4.0,8.0,66,0.00,,,0.01,319.000000,,2013-04-05 23:42:00,
2013-04-05 16:52:00,62.0,51.0,-100.00,NW,313,4.0,8.0,66,0.00,,,0.01,319.000000,,2013-04-05 23:52:00,
2013-04-05 17:02:00,62.0,51.0,-100.00,NW,313,4.0,8.0,66,0.00,,,0.01,319.000000,,2013-04-06 00:02:00,
2013-04-05 17:12:00,62.0,51.0,-100.00,NW,313,4.0,8.0,66,0.00,,,0.01,319.000000,,2013-04-06 00:12:00,
2013-04-05 18:33:00,64.0,50.0,-100.00,WNW,283,3.0,8.0,61,-99.99,,,0.01,187.000000,,2013-04-06 01:33:00,
2013-04-05 18:43:00,64.0,50.0,-100.00,WNW,283,3.0,8.0,61,-99.99,,,0.01,187.000000,,2013-04-06 01:43:00,
2013-04-05 18:53:00,64.0,50.0,-100.00,WNW,283,3.0,8.0,61,-99.99,,,0.01,187.000000,,2013-04-06 01:53:00,
2013-04-05 19:02:00,64.0,50.0,-100.00,WNW,283,3.0,8.0,61,-99.99,,,0.01,187.000000,,2013-04-06 02:02:00,
2013-04-05 19:12:00,64.0,50.0,-100.00,WNW,283,3.0,8.0,61,-99.99,,,0.01,187.000000,,2013-04-06 02:12:00,
2013-04-05 19:43:00,60.0,48.0,-100.00,West,264,0.0,6.0,64,0.00,,,0.01,72.000000,,2013-04-06 02:43:00,
2013-04-05 19:52:00,60.0,48.0,-100.00,West,264,0.0,6.0,64,0.00,,,0.01,72.000000,,2013-04-06 02:52:00,
2013-04-05 20:02:00,60.0,48.0,-100.00,West,264,0.0,6.0,64,0.00,,,0.01,72.000000,,2013-04-06 03:02:00,
2013-04-05 20:12:00,60.0,48.0,-100.00,West,264,0.0,6.0,64,0.00,,,0.01,72.000000,,2013-04-06 03:12:00,
2013-04-05 20:13:00,54.0,48.0,-100.00,ENE,57,2.0,4.0,79,0.00,,,0.01,3.000000,,2013-04-06 03:13:00,
2013-04-05 20:43:00,54.0,48.0,-100.00,ENE,57,2.0,4.0,79,0.00,,,0.01,3.000000,,2013-04-06 03:43:00,
2013-04-05 21:03:00,54.0,48.0,-100.00,ENE,57,2.0,4.0,79,0.00,,,0.01,3.000000,,2013-04-06 04:03:00,
2013-04-05 21:43:00,51.0,50.0,-100.00,ENE,64,5.0,7.0,98,0.00,,,0.01,0.000000,,2013-04-06 04:43:00,
2013-04-05 21:53:00,51.0,50.0,-100.00,ENE,64,5.0,7.0,98,0.00,,,0.01,0.000000,,2013-04-06 04:53:00,
2013-04-05 22:02:00,51.0,50.0,-100.00,ENE,64,5.0,7.0,98,0.00,,,0.01,0.000000,,2013-04-06 05:02:00,
2013-04-05 22:12:00,51.0,50.0,-100.00,ENE,64,5.0,7.0,98,0.00,,,0.01,0.000000,,2013-04-06 05:12:00,
2013-04-05 22:43:00,53.0,50.0,-100.00,SW,235,2.0,7.0,90,0.00,,,0.01,0.000000,,2013-04-06 05:43:00,
2013-04-05 22:52:00,53.0,50.0,-100.00,SW,235,2.0,7.0,90,0.00,,,0.01,0.000000,,2013-04-06 05:52:00,
2013-04-05 23:02:00,53.0,50.0,-100.00,SW,235,2.0,7.0,90,0.00,,,0.01,0.000000,,2013-04-06 06:02:00,
2013-04-05 23:12:00,53.0,50.0,-100.00,SW,235,2.0,7.0,90,0.00,,,0.01,0.000000,,2013-04-06 06:12:00,
2013-04-05 23:43:00,52.0,50.0,-100.00,NE,48,3.0,4.0,93,0.00,,,-99.99,0.000000,,2013-04-06 06:43:00,
2013-04-05 23:52:00,52.0,50.0,-100.00,NE,48,3.0,4.0,93,0.00,,,-99.99,0.000000,,2013-04-06 06:52:00,